TeikyoSat 4
1 49396U 21102B   25304.61330646  .00002843  00000-0  18666-3 0  9997
2 49396  97.3964 337.7897 0012439   8.3490 351.7944 15.08354239218259
Z-Sat
1 49399U 21102E   25304.86779531  .00006698  00000-0  35245-3 0  9991
2 49399  97.3649 342.0736 0016516 328.0981  31.9250 15.15845275218823
KOSEN 1
1 49402U 21102H   25304.65694478  .00011337  00000-0  48911-3 0  9999
2 49402  97.3544 346.4380 0013355 297.0005  62.9868 15.22618345219199
HO-113
1 50466U 21131B   25304.85142459  .00000825  00000-0  27033-3 0  9994
2 50466  98.5070  33.4836 0005125  71.5508 288.6238 14.41023282202220
SNUGLITE 2
1 52899U 22065F   25304.83008536  .00001754  00000-0  34639-3 0  9990
2 52899  98.1896  85.6133 0007938  28.9781 331.1860 14.63654832177586
UmKA 1 (RS40S)
1 57172U 23091G   25304.81143036  .00008980  00000-0  45242-3 0  9992
2 57172  97.5410 359.4688 0013552 188.3711 171.7299 15.17327374129332
CubeBel-2 (EU11S)
1 57175U 23091K   25304.81051336  .00015318  00000-0  66140-3 0  9999
2 57175  97.5406   1.6019 0011060 191.4182 168.6805 15.22546700129478
ENSO
1 58470U 23185J   25303.92361103  .00903765  39180-3  18243-2 0  9995
2 58470  97.3470  26.1128 0007672 265.5287  94.5114 15.99652834107490
SONATE-2
1 59112U 24043Q   25304.83867454  .00030319  00000-0  70840-3 0  9998
2 59112  97.5310  79.6313 0009087 319.5004  40.5565 15.42089826 92517
MO-122
1 60209U 24125G   25304.54631772  .00036850  00000-0  83653-3 0  9990
2 60209  97.2588 154.9829 0015741 344.8474  15.2300 15.42823161 74092
GRBBeta
1 60237U 24128C   25304.34676786  .00006399  00000-0  45779-3 0  9998
2 60237  61.9906 297.7896 0057146  87.5274 273.2358 15.04131451 71817
Curium One
1 60242U 24128H   25304.69921471  .00011920  00000-0  76036-3 0  9992
2 60242  61.9798 292.3738 0056826  84.2350 276.5218 15.07755928 71940
ROBUSTA-3A
1 60243U 24128J   25304.68553023  .00011718  00000-0  76011-3 0  9994
2 60243  61.9874 293.7791 0056812  81.6382 279.1147 15.07157518 71920
CatSat
1 60246U 24125J   25304.85450617  .00040098  00000-0  10943-2 0  9992
2 60246  97.2400 152.7909 0035315 300.3479  59.4275 15.36681133 72084
HYPERVIEW-1G (RS66S)
1 61772U 24199AP  25304.85552222  .00047165  00000-0  10448-2 0  9995
2 61772  97.3270 173.8903 0013088  40.9667 319.2562 15.43541237 99142
AO-123
1 61781U 24199AY  25304.85237527  .00013513  00000-0  45467-3 0  9993
2 61781  97.3301 170.7862 0016615  49.8557 310.4136 15.30775957 98932
ZIMSAT 2
1 61783U 24199BA  25304.84533975  .00133984  00000-0  17515-2 0  9997
2 61783  97.3192 176.2338 0010967  39.0953 321.1093 15.58118593102457
HADES-R (SO-124)
1 62690U 25009CK  25303.88274213  .00135271  00000-0  27593-2 0  9994
2 62690  97.3951  25.3030 0002769 278.5117  81.5818 15.45695839 44135
HYDRA-T
1 62692U 25009CM  25304.15242052  .00121536  00000-0  24133-2 0  9999
2 62692  97.3967  25.7062 0003247 278.4102  81.6780 15.46536160 44184
JINJUSat 1B
1 63210U 25052A   25304.61456729  .00020297  00000-0  82017-3 0  9991
2 63210  97.4213 197.0902 0004463 141.7399 218.4156 15.24771817 35164
NUSHSAT 1
1 63211U 25052B   25304.70034056  .00023360  00000-0  92190-3 0  9994
2 63211  97.4197 197.2478 0004154 143.6593 216.4928 15.25535563 35184
TEVEL2-4
1 63213U 25052D   25304.68467617  .00021848  00000-0  87656-3 0  9996
2 63213  97.4121 196.8672 0002798 147.9999 212.1409 15.25000460 35172
TEVEL2-5
1 63214U 25052E   25304.68838795  .00021309  00000-0  85643-3 0  9992
2 63214  97.4120 196.8629 0002794 149.2810 210.8592 15.24947068 35178
TEVEL2-6
1 63215U 25052F   25304.69438404  .00021731  00000-0  87449-3 0  9992
2 63215  97.4123 196.8586 0002772 148.2234 211.9171 15.24902004 35175
TEVEL2-1
1 63217U 25052H   25304.66300970  .00022471  00000-0  91197-3 0  9994
2 63217  97.4094 196.6731 0002234 166.2903 193.8396 15.24610891 35166
TEVEL2-3
1 63218U 25052J   25304.66270902  .00022726  00000-0  92184-3 0  9996
2 63218  97.4097 196.6759 0002313 167.7015 192.4280 15.24625689 35166
TEVEL2-2
1 63219U 25052K   25304.66379156  .00022556  00000-0  91544-3 0  9998
2 63219  97.4093 196.6738 0002229 166.9077 193.2219 15.24609417 35167
TEVEL2-9
1 63237U 25052AD  25304.65269093  .00021461  00000-0  90752-3 0  9999
2 63237  97.4158 196.4257 0005369 219.1340 140.9509 15.23221913 35133
TEVEL2-7
1 63238U 25052AE  25304.66287271  .00021215  00000-0  90039-3 0  9994
2 63238  97.4159 196.4176 0005464 219.1740 140.9101 15.23101109 35137
TEVEL2-8
1 63239U 25052AF  25304.66776414  .00020995  00000-0  89184-3 0  9990
2 63239  97.4160 196.4088 0005418 219.5380 140.5462 15.23073390 35131
HYDRA-W
1 63490U 25052BL  25304.66658714  .00066366  00000-0  19697-2 0  9994
2 63490  97.4090 198.0661 0006508 202.0738 158.0226 15.34539686 35254
HADES-ICM (SO-125)
1 63492U 25052BN  25303.18245186  .00070936  00000-0  22033-2 0  9993
2 63492  97.4102 196.4055 0006443 217.3266 142.7530 15.33074060 35013
Dragonfly
1 65729U 98067XH  25304.53323922  .00107808  00000-0  13232-2 0  9999
2 65729  51.6321 349.7034 0003312  60.6779 299.4544 15.59463814  6552
RSP-03
1 65732U 98067XL  25304.54506606  .00092034  00000-0  11758-2 0  9991
2 65732  51.6324 349.7830 0005529  38.8164 321.3225 15.58468460  6563
GHS-01
1 65733U 98067XM  25304.52542407  .00119443  00000-0  14261-2 0  9995
2 65733  51.6330 349.6530 0003796  57.6162 302.5198 15.60136598  6565
BOTAN
1 65942U 98067XP  25303.55162490  .00085715  00000-0  13052-2 0  9990
2 65942  51.6336 355.8960 0004520 355.9022   4.1931 15.53757174  3135
